Wind_Speed
38 39 40 43 46 50 53 55 56 55 54 53 52 51 49 47 46 46 46 47 50 54 59 64 67 68 67 66 65 65 66 67 67 67 66 65 62 59 57 56 55 53 53 52 51 50 49 47 45 44 44 43 42 41 40 38 36 35 33 29 25 22 22 22 25 25 24 23 22 22 22 22 22 21 20 20 19 19 18 17 17 17 17 16 15 15 14 14
40 40 41 41 42 44 47 50 53 56 57 57 56 54 53 51 49 48 47 46 47 49 52 57 62 65 67 68 67 65 65 66 67 68 68 67 65 63 60 58 56 55 54 54 53 52 51 49 48 46 46 45 44 43 42 40 39 37 34 30 26 22 23 25 27 26 24 23 21 21 21 22 22 21 20 20 20 20 19 18 18 18 18 18 17 16 16 15
43 43 44 44 44 44 45 46 48 51 54 57 58 58 57 55 53 52 50 48 48 47 49 51 55 59 63 66 68 67 65 64 65 67 68 68 67 66 64 61 59 57 56 55 55 54 53 51 50 49 48 47 46 45 45 43 41 39 37 32 27 25 27 29 28 27 25 23 21 21 21 21 21 21 20 21 21 20 19 19 19 18 19 19 19 18 17 16
45 46 46 47 47 47 47 47 47 48 49 52 55 58 59 59 57 56 54 52 50 49 48 48 50 54 57 61 65 67 68 66 64 65 67 68 68 68 67 65 62 59 58 57 57 56 55 53 52 51 50 49 48 47 46 45 44 42 39 34 29 30 32 31 30 29 27 24 22 21 21 21 21 21 21 21 21 20 19 19 19 18 19 19 20 19 19 18
48 48 49 49 50 50 50 50 50 50 50 50 51 54 57 59 60 60 58 56 54 52 51 49 49 50 53 56 59 63 67 66 65 65 65 67 68 69 68 67 65 62 60 59 58 58 57 56 54 53 52 51 49 49 48 47 46 44 41 37 34 36 35 33 33 32 29 27 25 23 22 21 21 21 21 21 21 20 20 19 18 18 18 19 19 19 20 20
51 51 52 52 52 52 53 53 53 53 53 52 52 51 53 55 58 61 61 60 58 56 55 53 51 50 50 52 55 59 63 64 66 66 64 65 66 68 68 68 68 66 64 61 60 59 59 58 57 55 54 53 52 51 49 49 49 47 43 40 39 39 38 37 36 34 32 30 28 26 24 23 22 22 22 21 21 22 21 19 18 18 18 18 18 18 20 21
53 54 55 55 55 55 55 55 55 55 55 55 55 54 53 53 55 57 60 62 62 60 58 57 55 52 51 51 52 56 60 61 61 62 64 65 65 66 67 68 68 68 67 65 63 61 60 60 59 57 56 56 54 52 51 50 51 49 46 43 42 41 41 40 39 37 35 34 32 30 28 26 24 23 23 22 22 23 22 20 19 18 18 18 17 17 20 21
55 56 57 57 57 58 58 58 58 58 58 57 57 57 56 55 55 55 56 59 62 63 62 60 59 56 54 53 53 55 57 56 54 59 62 64 65 65 66 66 67 68 67 67 66 64 62 61 61 60 59 58 57 55 53 53 53 51 48 46 45 44 43 43 42 40 38 37 35 33 31 29 27 26 24 23 24 24 23 22 20 20 20 19 18 17 18 20
55 56 57 59 60 60 60 60 60 60 60 60 59 59 59 58 57 57 56 56 58 62 64 64 62 60 59 57 56 55 55 50 49 57 62 61 64 66 66 66 66 67 67 67 67 66 64 63 62 61 60 59 59 58 56 55 55 52 50 48 48 47 46 45 44 43 41 40 38 36 34 33 31 29 26 24 25 25 24 24 22 22 22 20 19 18 17 18
55 57 58 59 61 62 62 63 63 62 62 62 62 61 61 61 60 60 59 57 57 59 61 65 66 65 63 62 60 57 53 49 49 56 59 59 62 64 66 67 67 67 66 66 67 67 67 65 64 63 62 61 60 60 58 58 56 54 52 51 51 49 48 48 47 45 44 42 41 40 37 36 35 32 27 25 27 27 26 26 26 25 24 23 22 20 19 18
55 57 59 60 61 63 64 65 65 65 65 64 64 64 63 63 63 62 62 61 59 58 59 62 65 67 67 66 64 58 53 51 50 53 56 56 58 60 63 65 66 67 66 66 66 66 66 66 66 65 64 63 62 61 61 60 59 56 55 54 53 52 51 50 49 48 46 45 44 42 41 39 39 34 27 27 30 30 29 29 29 28 26 26 24 23 22 20
55 57 59 60 62 64 65 66 67 67 67 67 66 66 65 65 64 64 64 64 62 61 60 60 62 65 69 69 65 59 55 54 52 53 53 53 54 56 58 61 64 66 66 66 66 66 66 66 66 66 66 65 63 63 63 62 61 59 58 57 55 54 54 53 51 50 49 48 46 45 45 43 42 36 29 31 34 33 33 32 31 30 29 28 28 27 25 24
56 57 58 59 61 63 65 67 68 69 69 69 69 68 68 67 67 66 66 66 65 65 63 62 62 62 67 69 65 61 60 58 57 55 53 52 53 53 55 57 60 62 65 66 66 66 66 66 65 66 67 67 65 64 64 63 62 62 60 59 58 57 57 55 54 53 52 50 48 48 49 46 43 38 34 37 38 37 36 33 33 33 32 32 30 30 28 27
55 55 55 56 57 60 63 66 68 70 71 71 71 71 70 69 69 69 68 68 67 68 67 65 64 63 65 65 64 65 65 63 61 58 55 53 53 52 53 54 56 58 61 63 65 66 66 66 66 66 67 67 66 66 65 64 64 64 63 62 61 60 59 57 56 55 54 52 50 52 53 49 45 42 39 41 41 40 38 35 35 35 35 35 34 32 31 30
52 52 51 51 52 54 57 61 65 68 71 72 73 73 72 72 71 71 70 70 69 69 69 68 67 66 65 63 63 65 67 68 64 60 58 56 55 54 53 54 55 55 57 59 63 65 66 67 67 67 66 66 66 66 67 66 65 65 65 65 63 62 61 58 57 57 56 54 53 55 56 52 47 44 43 44 44 43 41 39 39 39 38 38 37 36 34 33
49 48 48 47 47 48 49 53 57 63 68 71 73 74 74 74 74 73 73 72 72 71 71 71 69 69 68 64 62 63 67 69 67 64 62 60 59 57 55 55 55 55 55 56 58 62 64 66 67 67 67 67 66 66 67 67 67 67 67 67 66 64 63 60 59 59 58 57 57 59 59 54 48 46 47 47 47 46 45 43 43 43 42 41 40 38 36 35
45 44 44 44 44 44 44 45 49 54 61 67 71 73 75 76 76 76 75 75 74 74 73 73 72 72 70 66 64 64 65 67 68 68 66 64 63 61 59 58 57 56 55 55 56 58 61 63 66 67 68 68 67 67 68 69 70 69 69 69 67 65 62 61 60 60 60 60 61 61 61 58 51 48 50 50 50 49 48 47 47 47 46 44 42 40 38 37
41 40 40 40 41 42 42 42 43 46 52 59 65 70 72 76 78 78 78 78 77 76 76 75 74 75 71 68 68 66 65 65 67 68 69 68 66 65 63 62 60 58 57 57 57 57 58 61 63 66 69 69 70 69 70 71 70 68 67 67 65 62 60 60 60 60 61 62 63 63 64 61 56 52 53 54 54 53 52 51 51 50 48 46 44 42 40 39
38 36 37 37 38 40 41 42 42 42 44 49 57 63 68 72 76 79 80 81 81 80 79 77 76 75 72 71 72 69 67 65 65 66 68 69 69 68 67 65 64 61 60 60 58 58 58 59 62 66 69 70 70 69 69 68 66 64 64 64 64 63 62 61 61 61 62 64 65 66 66 64 61 58 56 56 57 56 55 54 53 51 49 47 46 44 43 42
35 34 34 35 36 37 39 42 42 41 40 42 47 55 62 67 71 76 80 82 83 83 82 81 79 76 74 75 74 72 69 67 66 65 65 68 70 71 70 69 67 65 64 62 60 60 59 60 62 64 66 66 66 66 66 66 64 64 64 65 65 65 64 62 61 62 63 65 67 67 68 67 65 62 59 58 59 58 57 55 54 53 52 50 48 48 47 45
34 32 31 32 33 34 37 40 41 41 40 38 39 46 53 60 65 71 78 82 84 85 85 83 82 79 77 77 77 75 73 71 70 67 65 65 68 72 73 72 71 69 67 65 64 63 63 64 63 62 61 60 61 61 62 63 64 65 65 66 66 65 65 63 62 63 63 64 66 67 69 69 67 65 62 61 61 60 59 58 56 55 54 53 52 50 49 48
33 30 29 30 31 32 34 37 39 40 40 37 35 38 44 52 59 65 72 79 82 85 86 85 84 82 79 79 78 77 76 75 73 70 67 65 66 70 73 74 75 72 69 69 68 67 67 66 62 59 59 58 57 57 59 61 63 64 65 66 67 67 66 64 63 63 64 65 66 67 69 70 69 67 65 63 62 62 61 60 58 58 57 56 55 53 52 51
33 29 28 28 29 29 31 34 36 37 37 36 34 34 38 43 51 57 64 71 77 82 85 86 86 84 81 81 80 79 79 77 74 73 70 67 66 66 70 75 76 74 73 74 73 71 69 66 62 60 60 58 56 55 56 59 61 63 64 65 67 67 66 64 63 62 63 65 66 66 69 70 69 68 67 64 63 63 62 61 60 60 59 58 57 56 54 52
32 28 27 27 27 28 29 31 32 33 33 34 33 30 32 35 41 46 53 62 69 73 79 84 87 86 84 82 82 82 81 79 76 74 72 70 68 66 67 72 75 76 77 76 75 74 71 67 64 62 60 58 57 56 55 57 59 60 61 62 64 64 62 63 64 63 63 65 66 66 69 73 71 69 67 64 63 64 63 62 62 61 60 59 59 58 56 54
31 27 26 26 26 26 26 28 29 29 30 32 32 30 27 29 32 36 42 53 62 66 71 80 85 85 84 84 85 84 83 81 79 76 75 72 71 69 68 69 72 76 77 77 78 77 73 70 67 65 63 61 60 59 57 57 58 58 59 59 59 60 59 60 62 62 63 65 66 66 69 75 72 69 68 64 63 65 64 63 63 62 61 61 60 59 58 57
29 25 24 25 25 25 25 26 27 26 27 29 31 31 27 24 25 28 34 44 55 59 62 71 80 82 84 86 85 84 85 84 79 78 78 75 73 72 72 71 71 72 74 77 80 80 76 72 71 69 67 65 64 62 60 59 59 59 58 56 56 56 56 57 58 59 61 64 67 66 68 76 76 71 71 67 65 65 66 65 64 63 63 62 61 60 59 59
27 23 22 23 24 24 24 24 24 24 25 27 28 29 27 22 22 24 28 38 47 49 51 60 70 74 77 80 83 85 87 84 80 81 80 77 76 75 74 73 71 70 71 74 78 80 78 75 75 74 72 71 69 66 63 61 62 62 59 56 56 55 54 55 55 56 58 60 65 66 68 76 79 75 72 70 67 67 66 66 64 63 62 61 61 60 60 60
24 21 21 22 22 22 23 23 22 22 23 25 26 27 27 23 20 20 25 34 36 35 38 45 56 65 66 69 76 81 85 84 81 82 81 79 79 77 76 75 72 70 70 72 74 75 77 77 78 77 77 75 71 67 64 63 63 63 60 58 57 56 56 57 56 56 57 58 63 66 67 75 80 77 73 71 70 69 68 65 63 62 61 60 60 60 60 60
22 20 20 20 21 22 22 21 20 20 21 23 24 25 27 24 20 18 23 29 27 27 30 31 40 53 58 61 67 70 77 83 83 82 80 80 81 79 77 75 73 73 73 73 71 70 73 77 78 79 80 77 72 69 67 66 66 65 63 62 61 60 60 60 60 59 59 62 65 66 66 71 79 79 75 72 71 71 69 65 63 60 59 59 58 58 59 59
21 20 20 20 20 21 21 21 18 19 20 22 23 25 26 25 23 20 21 23 19 21 28 26 27 33 40 48 57 61 67 75 79 79 76 77 80 79 78 76 74 75 75 74 71 68 69 73 76 79 80 78 75 74 72 71 71 69 67 66 65 64 64 63 64 63 65 67 68 68 66 67 76 81 78 75 72 70 69 66 62 59 57 56 57 57 57 57
22 21 20 20 20 21 22 21 18 18 19 21 23 24 25 26 24 22 22 21 15 19 25 27 27 24 20 24 34 47 59 67 71 72 70 72 75 76 77 77 76 76 75 75 73 69 67 70 74 76 78 78 78 78 77 76 76 73 72 71 69 69 68 68 68 68 71 71 69 70 67 66 75 81 79 76 73 70 69 67 63 59 56 54 55 55 55 56
23 23 22 21 20 21 22 21 18 18 19 21 23 23 25 25 22 22 24 22 17 17 18 22 28 29 22 14 15 25 39 53 63 65 64 64 66 68 72 74 75 76 77 77 75 72 71 71 72 71 73 75 77 79 80 80 79 76 75 74 73 72 72 72 73 74 75 73 71 71 68 69 76 80 79 76 73 70 68 67 64 60 58 56 55 54 53 53
23 24 23 21 21 22 23 21 19 20 21 22 23 23 25 22 19 20 23 22 20 15 13 17 22 30 29 21 17 17 21 31 43 53 58 59 59 61 63 65 67 69 73 74 73 74 74 72 70 68 68 71 74 76 80 81 80 79 79 78 77 76 76 77 77 77 77 74 72 71 70 73 76 76 77 76 74 72 69 67 64 60 58 57 57 56 54 53
23 26 24 22 22 23 23 22 21 23 24 23 24 25 22 19 18 20 20 19 20 18 15 17 18 24 30 28 23 20 19 21 25 33 43 51 56 58 59 60 62 64 66 69 70 72 74 74 73 70 68 68 69 70 73 76 77 78 77 77 77 77 78 78 77 77 76 73 73 73 74 75 74 73 75 74 74 73 70 67 63 59 56 55 56 58 58 57
24 26 26 23 24 25 24 23 22 24 25 23 25 25 19 18 19 19 18 17 18 19 17 16 18 21 25 31 30 24 21 22 21 22 28 37 46 53 56 56 58 60 63 67 70 71 73 76 74 71 68 67 66 65 65 68 71 74 74 75 77 77 77 78 78 77 76 75 77 77 77 75 72 72 73 72 72 71 69 67 63 60 57 55 55 55 57 59
24 25 27 25 27 28 25 24 24 24 24 24 24 20 17 18 20 19 18 17 18 19 18 15 20 23 22 26 32 31 25 24 24 23 24 26 32 41 49 52 54 55 58 63 67 69 72 75 74 71 69 67 65 63 62 63 64 67 71 74 76 77 77 77 78 78 78 79 81 82 79 74 73 74 74 72 72 71 70 68 64 62 59 58 56 54 54 55
25 24 27 27 28 30 27 25 24 22 23 25 20 15 16 17 17 18 18 17 18 19 18 15 16 24 27 25 27 31 31 28 27 27 23 23 26 29 36 44 50 53 54 56 60 64 66 70 71 70 69 67 63 59 58 57 57 61 65 66 68 72 74 73 75 78 79 81 84 83 80 76 75 77 74 72 71 71 70 68 66 63 60 58 56 54 53 53
24 21 24 28 29 30 28 26 25 22 24 26 19 17 18 16 15 18 17 17 17 18 17 16 13 17 27 30 26 29 33 31 31 31 26 25 27 26 27 33 40 47 50 51 55 59 60 64 69 68 66 65 63 61 59 53 49 53 57 57 60 66 69 70 73 77 80 84 85 84 82 80 79 77 74 72 70 69 69 68 66 64 61 59 56 55 55 55
24 20 21 26 31 31 29 28 26 24 26 26 23 22 21 18 17 18 16 16 18 17 16 16 14 13 19 28 30 32 34 31 31 32 29 26 26 26 26 27 30 35 41 46 52 55 55 61 67 68 65 64 62 63 64 60 53 50 52 54 57 61 63 66 70 73 76 80 83 84 85 84 79 76 74 73 70 69 69 69 67 65 63 61 59 58 57 56
27 22 21 25 31 33 31 29 26 24 26 27 26 26 24 22 21 19 17 17 18 18 17 14 15 14 13 20 29 35 38 35 32 32 32 27 23 23 25 26 28 28 31 37 44 49 52 57 62 64 64 64 64 63 63 63 62 59 57 56 57 57 59 62 63 65 68 72 77 82 87 86 80 77 76 74 72 71 70 70 69 67 66 64 62 60 59 58
30 25 23 26 29 32 34 32 27 25 27 28 26 26 25 24 22 20 19 19 18 19 18 15 14 15 14 16 22 30 39 43 38 35 35 30 24 24 24 23 27 29 30 34 38 42 47 52 57 61 63 64 66 64 61 60 61 62 62 62 60 56 55 57 59 59 60 65 70 75 82 85 81 78 78 75 73 72 71 70 70 69 68 67 65 64 63 61
32 29 27 27 28 32 36 35 30 27 28 27 25 25 25 23 22 21 20 20 19 18 18 17 16 14 14 16 18 22 33 42 44 41 38 33 27 26 26 22 25 29 32 36 36 36 39 45 51 57 60 63 63 62 61 60 58 58 59 61 62 61 58 58 59 58 56 59 61 63 71 78 78 76 76 75 74 74 74 73 72 72 72 71 69 68 67 66
34 32 31 28 27 31 35 35 32 28 25 24 24 25 24 22 21 21 21 21 20 19 19 19 18 16 15 16 17 19 24 37 46 44 42 39 31 27 29 28 28 29 30 33 35 37 40 44 47 49 52 56 60 60 60 59 58 59 60 58 60 63 63 62 62 61 61 62 60 60 67 74 75 72 72 74 74 74 74 74 73 73 73 73 72 70 68 67
36 34 33 31 26 28 32 31 29 26 23 22 24 24 23 22 22 22 22 22 22 21 20 20 21 21 19 19 20 19 19 29 43 46 46 44 36 31 31 32 32 31 30 30 32 37 42 45 44 44 46 49 54 59 61 60 61 63 63 61 59 59 59 62 63 63 65 66 64 66 71 73 72 69 66 68 71 70 71 72 72 72 72 73 71 69 67 66
37 35 35 32 25 23 28 29 27 25 23 23 24 24 23 22 21 21 22 21 20 21 21 21 22 24 24 23 21 21 20 22 32 43 48 46 40 37 36 35 34 34 32 31 31 32 38 43 44 45 47 48 50 54 57 59 62 64 65 65 64 60 56 58 60 63 66 65 63 68 70 69 70 69 66 65 65 65 64 63 64 65 65 65 64 63 63 63
39 37 36 33 27 21 23 28 29 27 24 24 25 24 23 22 20 20 20 19 18 20 21 20 21 24 27 25 23 23 21 19 22 33 45 50 46 41 40 39 38 36 33 32 32 32 33 38 43 46 48 48 48 47 47 51 57 61 63 64 66 65 62 60 61 63 62 60 61 63 63 64 68 68 67 66 64 62 60 57 56 57 57 57 57 57 58 60
39 39 38 36 30 24 21 26 31 30 26 26 26 24 23 22 21 20 18 17 18 20 21 19 19 22 25 27 27 24 20 19 18 20 31 48 53 48 46 45 42 39 37 34 33 34 34 34 38 43 47 49 48 46 45 48 54 57 60 62 64 66 66 68 70 69 65 64 64 59 55 60 66 66 65 66 65 63 62 60 58 57 57 57 56 56 57 58
39 38 38 38 34 26 22 24 30 32 29 27 28 26 24 23 22 21 19 19 19 20 20 19 19 21 24 26 28 25 20 20 17 13 16 32 47 51 51 50 47 44 44 42 39 39 39 38 38 41 44 46 48 48 48 49 51 54 58 61 63 65 67 70 72 71 70 72 70 61 57 62 67 67 66 65 65 65 64 63 62 61 61 61 59 58 57 57
39 38 37 38 36 28 22 24 28 33 32 29 29 27 25 23 23 22 22 22 21 20 20 20 19 22 25 25 28 26 21 20 19 17 17 22 33 42 48 52 52 48 47 48 46 44 44 40 39 40 43 45 45 46 48 50 50 52 55 58 60 63 67 69 70 69 71 73 71 66 66 67 66 65 65 65 66 68 66 64 64 64 63 62 61 59 58 56
39 38 36 37 36 29 23 24 28 33 34 31 30 27 24 24 23 24 24 24 22 21 22 21 21 24 25 25 28 26 22 24 26 25 24 24 26 33 41 49 51 49 49 50 48 47 47 42 38 40 43 45 45 45 46 49 51 51 53 55 55 58 63 67 67 68 71 73 72 69 69 69 65 62 63 64 65 65 64 62 62 64 62 61 60 58 56 55
39 38 37 36 34 30 25 24 27 32 35 34 32 28 25 24 24 26 27 26 24 24 24 24 25 27 27 26 25 23 23 29 32 31 30 29 28 31 38 46 51 50 49 49 48 47 46 44 41 42 44 44 45 46 46 47 49 51 53 54 54 56 58 60 62 65 68 71 72 72 71 69 64 59 61 63 62 62 64 63 60 59 58 58 59 58 57 57
40 38 37 36 34 31 27 25 26 31 35 36 34 31 29 28 27 29 29 27 26 25 26 28 29 29 27 25 24 24 27 32 34 34 34 33 30 29 33 43 51 54 52 51 49 47 47 46 44 43 45 44 43 46 48 48 50 53 52 49 52 54 53 53 57 60 62 65 69 73 73 70 65 62 62 64 63 62 64 64 61 59 58 59 61 61 60 60
Wind_Direction
267 265 263 262 261 260 259 258 258 257 257 256 255 254 252 250 248 248 247 246 245 243 241 240 239 238 238 238 239 238 238 237 237 237 238 237 235 234 233 232 231 230 231 231 230 230 228 227 225 225 226 226 226 228 228 229 230 232 233 235 236 237 240 241 244 244 240 237 233 232 233 236 238 239 239 240 240 239 238 236 232 229 229 228 225 223 222 221
270 268 266 264 262 261 260 259 257 257 257 256 255 254 253 252 250 248 247 246 245 244 243 241 240 239 238 237 238 238 237 237 237 237 237 237 236 235 234 233 232 231 230 231 231 231 230 228 228 226 226 226 226 227 229 229 230 232 233 233 233 234 236 238 239 240 239 235 231 229 230 233 236 237 237 238 239 239 238 237 235 230 229 229 227 225 223 223
272 271 269 268 265 263 261 260 258 257 256 255 255 254 253 253 252 250 248 247 245 245 244 243 241 240 239 238 237 238 237 237 236 236 237 237 236 236 235 233 233 232 230 230 231 232 231 230 229 228 227 227 226 227 229 230 230 231 232 232 230 231 233 235 237 239 238 235 231 227 226 229 232 233 234 236 238 239 238 237 237 234 231 230 228 227 225 223
271 270 270 269 268 266 264 262 260 259 257 255 255 254 253 252 252 251 249 248 246 244 244 243 242 241 240 239 237 237 237 237 236 236 236 237 237 236 235 234 234 233 231 230 230 231 232 231 230 230 229 228 227 227 228 230 231 231 232 231 228 229 231 233 236 238 238 236 232 228 224 225 227 230 232 234 237 238 237 237 237 236 235 233 229 227 227 224
273 271 269 268 268 267 266 264 263 261 259 257 255 254 253 252 251 251 250 249 247 246 244 242 242 242 241 240 238 237 237 237 237 236 236 237 237 236 236 235 234 234 232 231 230 230 231 231 231 231 231 230 229 229 229 230 232 232 231 229 227 230 231 232 235 237 238 237 234 230 225 223 224 227 229 232 235 237 237 236 237 238 236 235 231 227 228 227
277 275 272 270 268 266 265 264 263 262 261 259 257 255 254 253 251 250 249 249 248 247 245 244 241 241 241 240 239 237 236 236 237 237 237 236 237 237 237 236 235 234 233 232 231 230 231 231 231 231 232 232 231 230 230 230 232 232 231 229 227 229 232 232 234 235 236 236 235 232 228 224 222 223 227 229 231 235 236 236 237 238 238 238 234 228 228 229
278 277 275 272 270 268 266 264 263 262 261 260 259 257 255 253 252 251 249 248 248 247 246 245 243 241 240 239 239 238 236 235 236 236 236 237 236 237 237 237 237 236 234 233 232 231 231 231 232 231 231 232 232 232 231 231 232 232 231 230 229 229 231 233 234 234 235 236 235 234 231 227 224 221 223 225 228 233 236 236 237 239 240 239 237 231 228 229
277 276 275 273 271 269 267 265 263 261 260 259 258 258 256 254 253 251 250 249 248 247 246 246 245 242 241 239 238 238 236 234 236 236 235 236 236 236 236 236 237 237 236 235 234 232 231 231 232 232 231 232 233 233 232 232 232 232 231 231 231 230 231 232 234 234 235 236 236 235 233 231 227 222 220 222 227 232 235 236 237 239 241 240 239 235 230 230
275 274 273 272 271 269 267 265 263 261 260 258 257 256 256 255 253 252 250 249 248 247 246 245 245 244 242 241 238 236 235 233 236 237 234 234 235 235 236 236 236 236 236 236 235 234 232 232 232 232 232 232 232 233 233 233 232 232 231 231 232 231 231 232 234 235 235 236 237 236 234 233 231 225 219 219 226 231 235 237 237 238 240 241 240 238 233 230
275 274 272 271 270 269 267 265 263 262 260 258 257 255 254 254 253 252 251 249 248 247 246 245 244 244 243 242 239 235 234 233 234 237 236 233 234 235 235 236 236 236 236 236 236 235 233 232 232 232 232 232 232 233 234 234 233 233 232 231 231 232 232 233 234 235 236 236 238 238 236 234 234 229 220 220 227 230 234 238 238 237 239 241 241 240 237 232
278 276 273 271 269 268 266 265 263 261 260 258 256 255 253 252 252 252 251 250 248 247 246 245 244 243 243 242 240 235 233 234 233 236 237 235 233 234 234 235 236 236 236 236 236 236 235 234 233 232 233 232 232 233 234 235 234 234 234 232 232 232 233 234 234 235 236 236 238 239 238 236 236 232 224 225 229 229 230 234 238 238 239 241 242 242 240 238
284 280 277 273 270 268 266 264 262 260 259 257 256 254 253 252 250 250 250 250 249 247 246 245 244 243 242 242 240 236 235 235 234 234 237 237 236 234 234 234 234 235 236 236 236 236 236 235 234 233 233 233 232 233 233 234 235 235 234 234 233 232 232 233 235 235 236 236 237 239 239 239 238 235 228 230 231 230 229 231 236 240 240 240 242 242 241 241
289 285 280 276 272 268 266 264 262 260 258 256 255 253 252 251 250 249 248 248 248 248 246 245 244 244 243 241 239 238 237 235 234 233 233 236 237 236 235 234 233 234 235 236 236 236 236 236 235 234 233 233 233 233 233 233 235 235 235 235 234 233 232 232 234 235 236 236 236 238 240 239 239 237 232 233 235 233 232 231 234 239 241 241 241 243 243 243
293 288 283 278 273 269 266 263 261 259 257 255 253 252 251 250 249 248 247 246 246 246 246 245 244 244 243 241 239 238 238 236 234 233 232 234 236 237 236 236 234 233 233 235 235 235 236 236 236 235 234 234 233 233 233 233 234 235 236 236 235 235 233 232 234 236 236 237 236 238 240 238 238 237 234 235 237 237 235 233 234 235 239 242 242 242 243 244
294 290 285 280 276 271 268 265 262 259 257 254 252 250 249 248 248 247 246 245 244 244 245 245 244 244 243 241 239 238 238 237 235 234 234 233 235 236 236 237 236 235 233 233 234 235 235 236 236 236 235 235 234 234 234 234 234 234 235 236 236 236 235 234 235 236 237 238 237 238 240 238 236 237 237 237 238 239 238 235 236 236 236 239 242 242 242 244
294 290 286 284 281 277 273 269 265 261 258 255 251 249 247 246 245 245 244 244 243 243 243 243 244 244 243 240 238 238 238 237 235 234 234 233 234 235 235 236 237 236 235 233 233 234 234 235 236 236 236 235 235 235 235 234 234 234 235 236 236 238 238 237 237 238 238 238 237 238 240 239 235 236 239 239 238 240 240 238 237 238 237 237 239 241 243 244
294 291 288 287 287 286 282 277 272 267 261 257 253 249 246 244 243 243 242 242 241 241 241 241 241 242 242 239 238 238 238 237 236 234 233 233 233 234 234 235 236 236 236 235 234 233 234 234 235 235 236 236 235 235 235 235 234 234 235 236 236 238 240 240 238 239 239 239 239 239 241 240 236 234 238 241 240 240 240 240 239 238 238 238 238 240 243 245
294 291 290 291 293 294 293 290 284 277 269 261 256 251 247 244 242 240 240 239 239 239 239 239 239 241 241 239 238 237 237 237 236 234 233 232 233 234 234 234 234 235 235 235 234 234 234 233 234 234 235 235 235 235 236 235 235 236 236 237 238 240 242 242 241 241 240 240 240 240 240 240 237 233 235 239 240 240 240 240 240 240 240 240 241 240 241 243
294 291 290 293 296 299 300 300 296 290 280 269 260 254 249 245 241 239 238 237 237 237 237 237 238 239 240 239 239 238 237 237 236 235 233 232 232 233 234 234 234 234 235 235 234 234 234 233 233 233 234 235 236 237 237 237 238 238 238 238 239 239 240 241 242 241 241 240 239 239 240 240 239 235 234 236 239 241 242 242 243 243 243 243 243 243 241 241
294 290 290 295 298 301 304 305 305 302 294 281 267 257 251 247 242 239 237 236 235 235 235 235 235 236 237 238 238 238 237 237 236 235 234 232 231 232 233 234 234 234 234 234 234 235 235 234 233 233 234 235 237 237 238 238 239 239 238 238 238 238 239 240 242 242 242 242 241 240 240 240 241 239 237 236 238 241 243 244 244 245 245 244 243 243 243 242
294 288 289 295 299 303 306 308 309 309 306 296 279 263 254 249 244 240 237 236 234 234 233 233 234 234 234 236 237 237 236 236 236 235 234 233 231 231 232 233 234 234 235 235 235 235 235 235 233 233 234 234 235 236 237 237 238 238 238 238 238 238 238 239 240 241 242 242 242 242 242 241 241 241 239 238 237 239 240 242 244 245 246 245 244 243 242 243
294 287 287 293 298 304 308 310 313 314 315 310 293 273 259 252 247 243 239 236 234 234 233 232 232 232 232 234 236 236 236 235 235 234 233 233 232 231 231 233 234 234 234 235 235 235 236 234 233 233 234 233 234 235 236 236 236 237 237 238 238 238 238 238 239 240 241 241 241 242 242 242 241 241 240 239 238 238 240 240 242 244 245 246 246 245 243 243
294 285 286 291 296 304 309 312 316 319 323 321 309 287 269 258 251 246 242 238 235 234 233 232 231 231 231 232 234 235 236 235 235 235 234 233 232 232 231 232 233 233 234 235 236 236 236 235 233 234 234 234 235 235 236 236 236 237 237 238 238 238 238 238 239 239 240 241 241 241 242 242 242 241 240 240 239 239 240 241 240 241 244 246 247 247 245 244
292 283 284 289 294 303 310 314 318 325 331 333 328 308 285 269 258 252 247 241 236 235 235 232 231 230 229 230 232 233 235 235 234 235 234 234 233 232 232 233 233 233 233 234 235 236 236 235 234 235 236 236 236 236 236 237 236 237 237 238 239 239 240 240 240 239 240 241 241 241 242 241 241 242 241 241 241 241 240 240 241 241 241 244 246 247 247 247
290 279 280 286 293 303 308 313 320 329 338 343 342 332 308 284 270 261 254 247 239 235 236 234 232 230 229 230 231 231 233 234 234 234 234 233 233 233 232 232 233 233 233 233 235 236 235 235 234 235 236 236 236 236 236 237 237 237 237 237 239 239 240 240 241 241 240 240 240 241 242 241 240 241 241 240 240 241 241 240 241 241 241 242 243 246 248 248
286 275 277 283 293 303 306 312 322 331 340 347 349 344 328 303 285 271 261 255 244 237 236 236 234 232 230 231 230 231 233 233 233 234 234 233 233 234 232 232 233 233 233 233 234 235 234 234 235 235 235 236 236 236 235 237 238 238 236 237 239 239 240 241 241 242 241 240 239 241 243 242 239 239 240 240 239 241 242 241 240 241 242 242 243 245 247 249
282 270 274 282 294 302 304 311 322 332 339 345 349 347 340 319 296 279 267 261 252 243 239 238 236 233 232 232 232 232 233 232 232 233 234 234 234 234 233 233 233 234 234 234 234 234 234 234 234 235 235 235 235 235 235 236 238 238 236 237 240 240 241 242 243 244 243 242 241 239 242 243 241 238 238 240 240 240 241 242 242 241 242 243 244 245 247 248
276 267 273 282 295 300 303 310 322 331 336 342 345 345 344 333 310 290 276 266 256 247 243 240 238 235 233 234 233 233 233 231 232 233 233 234 233 233 234 233 234 234 235 236 236 235 234 234 234 235 235 235 235 236 237 238 240 241 239 240 241 242 243 244 245 246 245 245 242 239 240 243 242 239 237 238 239 241 241 241 242 242 242 243 244 245 246 247
268 265 273 283 295 299 302 310 321 329 331 337 340 341 343 340 329 309 286 276 264 249 243 241 240 237 236 236 235 235 235 232 232 232 232 234 233 232 233 233 234 234 234 236 236 236 235 235 235 235 235 236 235 236 237 238 241 242 242 243 242 243 243 244 246 246 246 246 242 238 239 242 243 241 239 237 237 240 241 240 240 241 242 242 243 243 244 246
264 263 272 281 293 297 301 308 319 325 326 331 334 336 338 339 341 330 308 303 289 254 240 234 233 235 235 238 238 237 237 235 234 234 234 234 234 233 232 231 232 232 233 235 235 235 235 236 236 235 234 235 235 235 235 236 238 238 240 241 242 243 243 244 246 245 246 245 240 238 239 242 243 241 240 239 237 237 239 239 240 239 240 242 242 242 243 244
263 261 269 277 289 296 299 305 314 318 322 325 326 330 332 335 343 342 337 335 306 259 243 232 225 223 224 234 240 238 238 237 236 237 237 236 235 235 233 230 231 231 232 233 233 233 234 236 236 236 235 234 234 234 233 234 235 235 237 238 239 241 241 242 244 244 245 244 239 239 239 241 242 240 239 239 237 237 238 238 238 238 238 240 241 242 243 243
265 259 267 273 284 293 296 300 306 312 316 316 318 323 325 330 342 348 351 346 311 274 256 241 231 224 217 219 229 233 238 238 237 238 239 238 237 236 235 233 233 233 233 233 234 233 234 235 237 236 236 235 234 234 234 234 234 235 236 237 238 240 240 241 241 242 244 242 240 240 240 242 242 239 239 240 238 238 238 237 237 236 236 237 239 241 242 243
269 257 264 270 280 288 290 295 301 307 310 310 313 317 319 329 346 350 349 343 328 308 269 249 239 228 222 221 224 227 234 238 238 239 239 239 239 238 236 235 234 235 235 235 235 235 235 236 237 237 236 236 235 235 235 235 235 236 236 237 238 239 241 241 241 243 244 243 242 242 243 245 243 238 239 242 241 240 239 238 238 237 238 238 239 240 241 243
278 256 261 269 277 282 286 292 298 303 306 307 308 310 319 337 345 342 342 339 334 325 286 257 238 223 219 218 223 228 234 234 232 237 239 239 240 238 236 235 234 234 234 235 235 236 236 237 238 239 240 240 239 238 238 238 238 238 238 239 240 240 242 244 245 246 248 248 248 248 248 247 244 240 240 242 243 243 242 241 240 240 240 240 240 241 242 242
291 261 259 266 271 277 283 289 295 299 301 301 301 304 319 338 335 330 336 337 331 326 308 269 234 219 215 218 220 219 225 228 223 228 234 236 239 239 238 237 237 236 234 233 233 234 236 237 238 240 241 242 242 241 241 240 240 240 239 239 240 241 243 246 248 248 249 249 249 249 249 248 245 243 242 243 244 245 245 245 244 242 242 241 241 241 241 242
304 272 260 263 267 272 279 287 291 294 296 295 297 304 319 329 328 325 327 329 325 321 320 290 246 230 218 218 223 223 223 223 219 221 228 234 238 239 238 237 237 237 236 236 236 235 237 238 238 239 239 240 241 242 242 241 241 242 241 240 242 243 243 244 246 247 248 248 248 249 248 246 245 244 243 243 244 245 245 246 246 245 244 243 242 241 241 242
313 286 264 262 267 270 277 285 287 289 292 292 297 312 319 320 325 324 318 316 315 312 315 312 271 243 233 226 221 224 228 227 224 224 225 232 237 234 234 236 236 237 237 237 237 237 238 239 239 239 240 240 240 241 242 244 245 244 243 243 243 243 243 243 245 246 247 248 248 249 248 246 246 245 242 243 245 246 247 247 247 247 246 245 245 245 245 244
317 302 274 264 266 270 274 280 282 286 286 285 294 309 310 313 319 318 310 302 302 303 304 309 299 262 246 238 225 220 224 226 228 229 225 228 234 230 227 231 233 235 237 237 236 235 236 237 238 239 240 241 240 239 237 238 242 245 247 245 242 242 242 243 244 245 247 249 249 249 249 247 246 245 244 244 245 247 250 250 250 250 250 249 248 248 248 247
317 312 288 271 267 268 272 274 275 280 281 282 291 298 300 307 311 307 300 293 291 294 298 299 300 287 257 244 236 228 225 222 221 224 224 226 231 230 228 227 227 231 234 236 237 236 236 238 238 237 238 239 239 239 237 234 233 238 243 243 241 241 243 244 245 246 248 250 251 250 250 248 246 245 247 247 246 248 250 252 252 253 253 252 251 250 249 249
318 313 298 279 270 268 268 268 269 275 278 281 288 292 295 299 300 299 293 286 284 283 287 291 291 291 276 254 244 236 233 231 225 221 221 221 221 219 223 228 228 227 227 231 235 235 235 237 238 237 237 236 235 236 238 238 236 235 237 241 242 242 244 245 246 246 247 249 250 250 249 247 245 245 246 246 247 248 250 251 253 254 254 254 254 254 253 252
321 315 304 289 275 267 264 263 265 272 274 279 287 291 292 290 287 290 290 283 280 279 279 280 282 288 289 275 258 244 240 239 238 232 224 219 214 207 206 220 232 231 228 229 231 233 234 237 238 238 237 237 236 237 237 237 238 238 238 240 242 243 245 246 247 246 246 247 249 250 251 249 246 246 247 248 249 250 251 252 254 255 256 256 255 255 255 254
324 319 312 299 281 267 262 259 259 263 269 276 285 287 286 285 282 285 287 285 281 277 274 273 276 280 281 280 274 260 247 242 244 244 234 223 216 204 196 206 223 227 229 233 233 233 235 238 238 238 239 239 238 237 235 233 234 237 239 240 240 241 241 243 246 247 247 249 250 253 254 250 247 248 249 249 250 250 251 252 253 254 255 255 254 254 254 254
327 323 317 308 287 267 261 259 255 256 264 273 280 283 283 283 281 282 286 288 284 276 269 267 268 268 270 273 273 270 257 245 243 246 242 232 217 200 199 206 210 213 220 229 233 234 235 236 238 237 238 240 239 237 235 234 232 233 235 237 240 241 241 242 244 246 248 249 250 252 254 250 246 247 248 249 250 249 251 252 252 253 254 255 255 254 254 255
329 326 321 316 298 270 260 257 252 252 260 268 272 277 280 277 279 284 285 283 278 271 266 263 263 264 266 266 264 264 262 249 243 243 245 238 221 205 208 213 211 209 210 214 223 232 236 237 239 240 238 236 237 235 233 232 232 232 232 232 236 240 242 243 244 244 246 248 248 249 251 250 249 248 248 250 252 251 251 253 253 253 254 255 256 256 256 256
331 329 326 322 308 277 257 251 249 250 255 260 262 267 272 272 276 283 282 279 277 274 271 267 264 263 262 263 264 263 264 261 249 243 243 240 228 216 216 219 217 212 208 205 210 221 233 236 235 237 238 237 237 238 237 234 234 235 233 231 232 234 237 240 243 243 245 247 248 249 250 251 251 250 248 249 252 252 252 253 254 256 256 256 257 258 258 256
332 332 330 326 314 289 259 246 245 247 249 253 257 260 265 268 271 274 276 281 286 285 281 277 271 264 261 263 267 267 268 271 264 251 243 239 233 225 223 226 226 219 212 210 210 213 225 234 235 237 240 241 241 242 242 239 237 236 235 233 233 233 233 236 239 241 243 246 246 247 249 250 249 249 249 249 251 251 251 252 253 256 257 256 256 256 257 256
333 333 332 329 320 299 269 248 244 244 245 249 253 254 258 263 267 269 271 279 285 285 283 281 276 270 265 263 264 266 268 270 275 271 249 238 234 233 231 232 233 230 226 225 224 223 224 225 229 236 240 242 241 240 238 237 236 236 236 235 233 233 233 235 237 239 240 243 244 245 247 249 249 249 250 253 254 253 253 253 253 255 256 256 254 253 254 254
332 333 332 332 326 309 279 257 247 242 241 246 248 249 252 257 262 266 270 275 279 282 282 280 278 276 270 264 261 261 263 266 276 299 274 243 236 237 237 238 239 240 241 240 236 236 235 226 221 229 234 235 237 237 236 237 238 237 237 235 234 233 233 234 236 236 237 240 242 243 244 247 249 250 251 253 255 256 257 256 254 254 253 253 253 252 253 253
330 332 333 332 330 318 288 265 252 242 239 242 242 242 246 250 255 263 269 271 272 274 276 276 280 281 274 266 262 259 263 273 277 282 278 258 245 241 240 239 241 244 247 246 243 244 246 235 225 230 232 228 230 233 233 235 238 239 239 237 236 236 236 236 236 235 235 238 240 241 242 245 247 249 250 251 253 255 256 256 254 253 253 253 253 253 253 254
328 330 332 331 332 325 298 274 260 246 240 242 244 244 245 246 252 260 263 264 265 268 272 275 280 282 276 268 267 266 265 269 266 261 262 261 255 250 244 240 241 243 245 245 245 248 250 242 233 240 242 230 226 229 230 231 234 237 238 238 236 238 239 238 238 238 238 239 239 240 242 244 244 246 248 249 252 254 254 254 253 252 253 253 254 254 253 253
326 327 329 331 334 330 310 286 267 251 243 244 250 254 254 252 255 261 260 259 262 268 274 276 277 276 271 270 275 274 263 258 254 253 256 256 254 255 251 243 241 243 243 243 243 246 249 245 240 248 251 238 228 231 231 230 233 233 234 236 236 237 240 240 240 240 240 241 241 240 240 241 240 242 245 247 248 248 249 249 250 251 253 254 254 254 253 253
324 324 325 328 332 332 320 300 277 257 246 245 252 257 259 259 262 265 263 259 262 270 274 273 272 272 272 276 280 273 261 255 250 249 252 252 251 254 255 250 245 244 244 243 243 243 245 244 242 248 254 246 234 234 236 237 239 233 228 232 236 237 240 242 240 240 241 241 242 241 241 241 240 238 239 241 240 241 245 248 250 252 253 253 253 254 254 254
Height
5729 5729 5729 5730 5730 5731 5732 5733 5734 5735 5737 5739 5740 5742 5743 5745 5747 5748 5750 5751 5752 5754 5756 5758 5761 5765 5768 5772 5776 5780 5784 5787 5790 5792 5795 5798 5801 5804 5806 5809 5812 5815 5817 5818 5820 5822 5824 5826 5827 5829 5830 5831 5833 5835 5836 5838 5840 5840 5842 5845 5848 5850 5851 5852 5851 5852 5853 5854 5855 5856 5857 5858 5859 5859 5860 5860 5861 5861 5861 5862 5862 5862 5862 5863 5864 5864 5865 5865
5724 5724 5724 5725 5725 5726 5726 5727 5729 5729 5731 5733 5734 5736 5738 5740 5742 5744 5745 5747 5748 5750 5751 5753 5755 5758 5762 5766 5770 5774 5778 5781 5784 5787 5789 5792 5796 5799 5802 5804 5807 5810 5812 5814 5816 5818 5820 5822 5824 5825 5826 5827 5829 5831 5832 5834 5836 5837 5840 5843 5845 5848 5848 5848 5848 5849 5850 5852 5853 5854 5855 5856 5857 5857 5858 5859 5859 5859 5860 5860 5860 5861 5861 5861 5862 5862 5863 5864
5719 5719 5719 5719 5720 5721 5721 5722 5723 5724 5725 5726 5728 5730 5732 5734 5736 5738 5740 5742 5744 5745 5747 5748 5750 5752 5755 5759 5763 5768 5771 5775 5778 5780 5783 5787 5790 5793 5796 5799 5802 5804 5807 5810 5812 5813 5815 5818 5820 5821 5823 5824 5826 5827 5828 5830 5832 5834 5836 5840 5844 5845 5844 5844 5845 5846 5848 5849 5850 5852 5853 5853 5854 5855 5856 5857 5857 5858 5858 5858 5859 5859 5859 5860 5860 5861 5862 5862
5714 5714 5714 5714 5714 5715 5716 5716 5717 5718 5719 5720 5722 5723 5725 5728 5730 5732 5734 5736 5738 5740 5742 5744 5745 5747 5749 5753 5757 5760 5764 5768 5772 5774 5777 5781 5783 5787 5790 5794 5797 5799 5802 5805 5807 5809 5811 5813 5816 5817 5819 5820 5822 5823 5824 5826 5828 5830 5833 5837 5841 5840 5840 5841 5842 5843 5845 5847 5848 5849 5850 5851 5852 5853 5854 5855 5855 5856 5857 5857 5857 5857 5858 5858 5858 5859 5860 5860
5708 5708 5708 5708 5709 5709 5709 5710 5711 5712 5713 5714 5716 5717 5719 5721 5723 5725 5728 5730 5732 5734 5736 5739 5741 5742 5744 5747 5750 5753 5757 5762 5766 5769 5772 5774 5777 5781 5784 5788 5791 5794 5797 5800 5802 5804 5806 5808 5811 5813 5815 5816 5819 5820 5821 5823 5824 5826 5830 5834 5836 5836 5836 5838 5839 5840 5842 5844 5846 5847 5848 5849 5850 5851 5852 5853 5853 5854 5854 5855 5856 5856 5856 5856 5857 5857 5858 5858
5701 5701 5702 5702 5702 5703 5703 5704 5704 5705 5707 5708 5709 5711 5712 5714 5716 5718 5721 5723 5726 5728 5730 5733 5735 5737 5740 5741 5744 5747 5750 5755 5761 5764 5766 5768 5771 5775 5779 5782 5785 5789 5792 5795 5797 5799 5801 5803 5806 5808 5810 5812 5814 5816 5818 5819 5820 5822 5826 5829 5831 5832 5833 5834 5835 5837 5839 5841 5842 5844 5845 5847 5848 5849 5849 5850 5851 5852 5852 5853 5854 5854 5854 5854 5855 5856 5856 5856
5694 5694 5694 5695 5695 5695 5696 5697 5697 5699 5700 5701 5702 5704 5706 5707 5709 5711 5713 5716 5719 5721 5724 5726 5729 5732 5734 5736 5739 5740 5744 5751 5755 5757 5760 5762 5765 5769 5772 5776 5779 5783 5786 5789 5792 5794 5797 5798 5800 5803 5806 5807 5809 5812 5814 5815 5816 5818 5822 5825 5827 5828 5829 5830 5831 5833 5835 5837 5839 5841 5843 5844 5845 5847 5847 5848 5849 5849 5850 5851 5852 5852 5852 5853 5853 5854 5854 5855
5688 5687 5686 5687 5687 5688 5689 5689 5690 5691 5692 5694 5695 5697 5699 5700 5702 5704 5706 5709 5711 5714 5717 5720 5722 5725 5728 5730 5732 5734 5740 5748 5749 5749 5753 5756 5759 5762 5765 5769 5773 5776 5780 5783 5786 5789 5792 5794 5795 5798 5800 5802 5805 5807 5809 5811 5812 5814 5818 5821 5822 5824 5825 5826 5827 5829 5832 5833 5835 5837 5839 5841 5842 5844 5846 5847 5847 5847 5848 5849 5850 5850 5850 5851 5851 5852 5853 5853
5680 5680 5680 5679 5679 5680 5680 5681 5682 5683 5685 5686 5688 5690 5692 5693 5695 5697 5699 5702 5704 5706 5709 5712 5715 5718 5720 5723 5725 5728 5737 5744 5742 5742 5746 5750 5752 5755 5759 5763 5766 5770 5773 5776 5780 5783 5786 5789 5790 5793 5795 5798 5800 5802 5804 5805 5807 5811 5814 5816 5817 5819 5821 5822 5823 5825 5828 5829 5831 5833 5836 5837 5839 5841 5844 5845 5845 5845 5846 5847 5848 5848 5848 5849 5849 5850 5851 5851
5673 5672 5672 5671 5671 5670 5671 5673 5674 5675 5676 5678 5680 5682 5684 5686 5688 5690 5692 5695 5697 5699 5702 5704 5708 5711 5713 5715 5717 5724 5734 5738 5737 5736 5739 5744 5746 5749 5753 5756 5760 5763 5766 5770 5773 5776 5780 5783 5785 5787 5790 5792 5795 5797 5799 5800 5803 5807 5809 5811 5813 5815 5816 5818 5819 5821 5824 5826 5827 5829 5832 5833 5835 5838 5842 5843 5843 5843 5844 5844 5845 5846 5846 5847 5847 5848 5849 5850
5665 5664 5663 5663 5662 5662 5662 5663 5664 5666 5667 5669 5671 5673 5675 5678 5680 5682 5685 5687 5690 5692 5694 5697 5700 5702 5706 5707 5711 5722 5731 5731 5732 5732 5733 5738 5741 5743 5746 5750 5754 5757 5760 5763 5766 5770 5773 5776 5779 5782 5784 5787 5790 5792 5793 5795 5798 5801 5803 5806 5808 5810 5812 5813 5815 5817 5819 5821 5823 5825 5827 5829 5830 5835 5841 5841 5839 5840 5841 5841 5842 5843 5844 5844 5845 5846 5846 5847
5657 5656 5654 5653 5653 5653 5653 5653 5655 5656 5658 5660 5661 5664 5666 5669 5672 5674 5677 5679 5682 5684 5687 5689 5691 5695 5697 5699 5707 5719 5724 5725 5727 5727 5729 5733 5735 5737 5740 5743 5747 5750 5754 5757 5760 5763 5766 5770 5773 5775 5778 5781 5785 5786 5788 5791 5793 5795 5798 5800 5802 5805 5807 5809 5811 5812 5814 5816 5819 5821 5821 5824 5827 5833 5838 5837 5835 5836 5837 5839 5839 5840 5841 5842 5843 5843 5844 5845
5649 5647 5645 5644 5643 5643 5643 5643 5644 5645 5648 5649 5652 5655 5657 5660 5663 5665 5668 5671 5674 5676 5679 5681 5684 5687 5688 5694 5705 5712 5715 5717 5719 5721 5725 5727 5728 5732 5735 5737 5741 5744 5747 5750 5753 5756 5759 5763 5766 5769 5772 5775 5778 5780 5783 5786 5788 5789 5792 5794 5796 5799 5801 5804 5806 5807 5809 5811 5816 5815 5815 5820 5824 5829 5833 5831 5831 5832 5834 5836 5837 5838 5838 5839 5840 5841 5842 5842
5641 5639 5637 5635 5634 5633 5633 5633 5633 5634 5636 5638 5642 5644 5647 5651 5653 5656 5659 5662 5665 5667 5670 5673 5677 5679 5680 5690 5699 5703 5705 5708 5711 5716 5720 5722 5724 5727 5729 5731 5734 5737 5741 5743 5746 5750 5753 5756 5759 5762 5766 5769 5772 5775 5778 5781 5782 5784 5786 5788 5790 5793 5796 5800 5802 5802 5805 5807 5811 5810 5809 5815 5819 5823 5827 5827 5827 5828 5831 5833 5834 5834 5835 5836 5837 5838 5839 5840
5634 5631 5629 5627 5626 5625 5624 5623 5622 5623 5624 5627 5630 5634 5638 5641 5643 5647 5649 5653 5656 5659 5663 5666 5669 5671 5674 5684 5691 5694 5696 5698 5705 5711 5714 5717 5719 5721 5724 5725 5728 5731 5734 5737 5740 5743 5746 5749 5752 5755 5759 5762 5765 5768 5772 5775 5777 5779 5781 5782 5785 5788 5791 5795 5797 5797 5800 5802 5805 5803 5803 5810 5816 5819 5821 5821 5822 5823 5826 5829 5829 5830 5831 5832 5833 5835 5836 5837
5627 5625 5622 5620 5619 5617 5616 5615 5613 5613 5613 5615 5618 5623 5627 5630 5633 5636 5639 5644 5646 5650 5654 5657 5661 5664 5666 5676 5684 5686 5686 5689 5698 5703 5706 5711 5712 5714 5718 5719 5722 5725 5727 5731 5733 5736 5739 5743 5745 5749 5752 5755 5759 5762 5765 5768 5771 5774 5776 5778 5781 5783 5784 5789 5791 5792 5794 5796 5797 5797 5797 5804 5813 5816 5815 5816 5818 5819 5821 5824 5825 5825 5827 5828 5829 5831 5833 5835
5621 5618 5616 5614 5612 5611 5609 5607 5606 5604 5603 5604 5606 5611 5615 5618 5622 5625 5629 5633 5635 5640 5644 5648 5653 5653 5658 5670 5676 5677 5678 5682 5689 5694 5699 5703 5705 5707 5710 5713 5715 5718 5722 5725 5726 5729 5733 5735 5738 5742 5745 5749 5752 5756 5758 5760 5764 5769 5771 5773 5775 5777 5778 5782 5786 5787 5789 5790 5791 5791 5792 5798 5808 5811 5810 5810 5812 5814 5815 5818 5819 5820 5822 5824 5826 5828 5830 5832
5616 5613 5611 5609 5607 5605 5603 5601 5599 5597 5596 5595 5596 5599 5603 5606 5610 5615 5618 5620 5624 5630 5633 5639 5643 5645 5655 5663 5664 5667 5672 5675 5679 5684 5690 5695 5698 5700 5703 5706 5708 5712 5716 5717 5720 5724 5725 5728 5731 5734 5737 5741 5745 5749 5751 5755 5760 5764 5766 5768 5770 5771 5773 5776 5779 5781 5782 5784 5785 5786 5787 5792 5800 5805 5805 5804 5805 5807 5809 5811 5813 5815 5817 5820 5822 5825 5827 5828
5610 5608 5606 5604 5603 5600 5597 5595 5592 5590 5589 5588 5587 5588 5590 5594 5598 5603 5606 5608 5613 5619 5623 5630 5634 5639 5650 5653 5653 5659 5664 5668 5672 5676 5682 5688 5691 5693 5696 5699 5702 5706 5708 5710 5715 5717 5718 5721 5722 5726 5732 5737 5742 5745 5747 5751 5755 5758 5760 5761 5762 5765 5767 5770 5771 5773 5775 5776 5778 5780 5782 5785 5791 5796 5799 5800 5800 5802 5804 5806 5808 5811 5814 5817 5819 5821 5823 5824
5606 5604 5602 5600 5598 5596 5593 5590 5587 5584 5582 5580 5579 5579 5580 5582 5585 5590 5593 5597 5602 5608 5612 5618 5624 5632 5640 5642 5644 5650 5656 5661 5664 5668 5674 5679 5683 5686 5688 5692 5696 5698 5700 5705 5709 5710 5712 5712 5715 5723 5731 5734 5738 5739 5740 5744 5748 5750 5751 5753 5756 5758 5761 5764 5764 5766 5769 5770 5772 5774 5775 5778 5782 5788 5793 5795 5796 5797 5799 5801 5804 5806 5808 5811 5813 5815 5817 5819
5601 5599 5598 5596 5595 5592 5590 5586 5583 5579 5576 5574 5572 5572 5571 5571 5574 5579 5582 5586 5592 5596 5601 5608 5614 5621 5628 5632 5635 5641 5647 5651 5654 5660 5666 5670 5675 5678 5680 5684 5687 5690 5695 5699 5701 5702 5703 5704 5713 5722 5725 5727 5729 5730 5733 5737 5740 5741 5743 5746 5749 5751 5754 5757 5758 5759 5762 5763 5765 5767 5768 5771 5775 5780 5786 5789 5791 5792 5794 5796 5799 5801 5802 5804 5807 5809 5811 5813
5596 5595 5594 5593 5591 5589 5586 5582 5579 5575 5572 5569 5566 5564 5563 5563 5566 5569 5571 5576 5582 5586 5591 5599 5604 5611 5621 5624 5627 5633 5637 5641 5646 5652 5657 5663 5667 5670 5675 5677 5678 5684 5690 5691 5692 5694 5695 5700 5712 5717 5717 5719 5721 5724 5728 5729 5731 5733 5736 5739 5741 5745 5748 5750 5751 5752 5754 5755 5758 5759 5760 5763 5768 5772 5777 5782 5785 5787 5788 5792 5794 5795 5796 5798 5800 5803 5806 5807
5591 5590 5590 5589 5588 5586 5583 5579 5576 5572 5569 5564 5561 5558 5558 5558 5559 5561 5562 5566 5573 5576 5581 5590 5595 5603 5612 5614 5620 5625 5626 5633 5640 5644 5651 5656 5660 5664 5668 5668 5670 5677 5680 5681 5684 5687 5689 5698 5708 5709 5709 5712 5715 5719 5721 5721 5724 5727 5730 5733 5735 5739 5741 5742 5744 5745 5747 5748 5750 5752 5753 5755 5760 5765 5770 5776 5779 5781 5783 5786 5788 5790 5791 5792 5794 5796 5799 5802
5587 5586 5586 5585 5584 5583 5580 5576 5573 5570 5566 5562 5558 5555 5554 5554 5553 5553 5553 5556 5563 5569 5572 5579 5585 5592 5602 5607 5612 5614 5616 5625 5631 5636 5644 5648 5652 5657 5659 5660 5663 5667 5670 5674 5677 5679 5685 5694 5699 5701 5703 5707 5710 5713 5714 5716 5719 5721 5724 5727 5729 5734 5736 5736 5737 5738 5740 5740 5742 5745 5744 5747 5754 5759 5763 5769 5772 5774 5777 5779 5781 5784 5786 5787 5788 5789 5792 5795
5583 5582 5582 5582 5581 5580 5577 5574 5571 5568 5565 5561 5556 5553 5551 5550 5550 5549 5548 5548 5554 5562 5565 5570 5576 5586 5597 5599 5600 5606 5610 5615 5622 5629 5635 5640 5644 5647 5651 5652 5653 5657 5663 5668 5669 5671 5680 5686 5690 5694 5696 5700 5703 5705 5708 5710 5712 5714 5718 5722 5724 5727 5729 5729 5730 5731 5732 5732 5736 5737 5734 5739 5749 5753 5756 5762 5764 5766 5770 5773 5775 5778 5780 5781 5783 5784 5786 5788
5578 5578 5578 5578 5578 5577 5574 5571 5569 5566 5564 5560 5556 5552 5548 5548 5547 5546 5545 5543 5547 5557 5562 5566 5572 5582 5590 5589 5594 5602 5599 5604 5617 5623 5624 5632 5637 5638 5642 5644 5646 5651 5656 5660 5659 5661 5671 5679 5683 5685 5688 5692 5694 5697 5702 5704 5706 5707 5712 5717 5718 5719 5721 5721 5722 5722 5722 5725 5729 5730 5728 5731 5740 5746 5748 5753 5758 5760 5762 5765 5769 5771 5772 5775 5778 5779 5780 5781
5574 5575 5575 5575 5575 5574 5572 5569 5567 5565 5562 5558 5555 5552 5548 5546 5545 5544 5544 5540 5544 5556 5561 5563 5567 5576 5582 5581 5588 5590 5587 5601 5614 5612 5616 5626 5628 5629 5632 5635 5640 5645 5650 5650 5647 5652 5665 5672 5673 5675 5679 5682 5685 5691 5696 5699 5699 5700 5707 5711 5710 5712 5714 5714 5715 5715 5716 5719 5720 5722 5725 5723 5728 5737 5743 5747 5752 5754 5756 5758 5762 5765 5767 5770 5772 5773 5775 5775
5571 5571 5572 5572 5572 5571 5569 5567 5565 5563 5561 5558 5555 5552 5548 5546 5543 5543 5542 5539 5545 5554 5556 5558 5562 5568 5573 5574 5578 5580 5584 5599 5602 5601 5610 5615 5615 5619 5622 5629 5636 5640 5642 5639 5638 5650 5660 5662 5664 5668 5670 5673 5680 5688 5692 5695 5694 5695 5701 5703 5704 5707 5707 5708 5708 5708 5711 5711 5709 5717 5721 5716 5719 5729 5737 5742 5745 5747 5750 5753 5756 5759 5762 5764 5766 5767 5768 5769
5568 5568 5569 5570 5569 5568 5567 5566 5564 5561 5559 5557 5554 5552 5549 5546 5544 5543 5541 5539 5545 5551 5552 5555 5558 5562 5567 5567 5571 5575 5579 5586 5588 5593 5601 5598 5601 5611 5615 5623 5630 5630 5631 5629 5634 5647 5651 5653 5657 5659 5660 5667 5677 5683 5686 5690 5688 5690 5694 5695 5698 5700 5700 5701 5700 5702 5704 5699 5702 5712 5714 5711 5712 5720 5727 5734 5739 5741 5744 5748 5750 5754 5755 5757 5760 5761 5762 5763
5565 5566 5566 5567 5567 5566 5565 5563 5562 5560 5557 5555 5553 5551 5549 5547 5545 5543 5541 5539 5543 5546 5547 5551 5554 5557 5560 5561 5565 5569 5572 5576 5580 5586 5588 5588 5595 5601 5605 5615 5618 5618 5621 5622 5629 5639 5642 5645 5645 5646 5652 5661 5669 5673 5677 5679 5677 5681 5685 5686 5690 5691 5693 5693 5692 5695 5692 5687 5698 5706 5707 5707 5705 5708 5717 5724 5732 5736 5738 5742 5745 5748 5750 5751 5753 5754 5755 5756
5563 5563 5564 5564 5564 5563 5562 5561 5560 5558 5556 5554 5551 5550 5548 5547 5546 5544 5542 5539 5539 5540 5542 5547 5550 5553 5555 5558 5561 5563 5565 5569 5574 5576 5578 5582 5588 5590 5596 5604 5606 5608 5612 5613 5622 5631 5634 5634 5632 5638 5647 5653 5658 5661 5665 5666 5666 5672 5676 5677 5680 5681 5683 5684 5683 5684 5678 5680 5694 5697 5700 5701 5693 5699 5709 5714 5724 5730 5732 5737 5741 5743 5745 5746 5746 5747 5749 5751
5560 5560 5561 5561 5562 5561 5560 5558 5557 5556 5554 5552 5550 5549 5547 5546 5546 5544 5542 5540 5537 5538 5541 5545 5547 5550 5553 5556 5558 5560 5561 5563 5567 5569 5572 5576 5580 5582 5588 5596 5600 5602 5603 5607 5617 5624 5625 5624 5625 5631 5638 5643 5648 5652 5655 5656 5659 5665 5668 5670 5672 5671 5673 5673 5673 5672 5669 5677 5687 5687 5693 5689 5681 5694 5704 5707 5717 5722 5725 5731 5733 5737 5739 5739 5740 5741 5743 5745
5557 5557 5558 5559 5560 5558 5557 5555 5554 5553 5552 5551 5549 5547 5546 5545 5545 5544 5542 5540 5538 5538 5540 5542 5544 5546 5550 5552 5555 5557 5558 5560 5562 5564 5566 5569 5572 5576 5582 5589 5594 5595 5599 5607 5613 5615 5618 5618 5618 5623 5629 5635 5640 5643 5645 5648 5654 5659 5660 5663 5664 5663 5663 5662 5664 5665 5665 5674 5679 5681 5684 5675 5676 5694 5700 5702 5709 5711 5717 5722 5725 5730 5732 5733 5735 5736 5738 5739
5554 5554 5555 5557 5557 5555 5554 5553 5552 5551 5549 5548 5547 5545 5545 5544 5544 5543 5542 5541 5539 5537 5538 5539 5540 5542 5544 5547 5551 5554 5555 5557 5558 5560 5562 5563 5566 5570 5576 5581 5584 5588 5595 5601 5604 5607 5610 5611 5613 5620 5626 5631 5635 5637 5641 5646 5650 5651 5655 5658 5656 5656 5658 5658 5662 5663 5665 5671 5673 5673 5672 5668 5679 5693 5695 5697 5700 5702 5709 5713 5717 5724 5726 5728 5730 5731 5732 5733
5551 5551 5553 5554 5553 5551 5551 5550 5550 5549 5547 5546 5545 5543 5543 5543 5542 5541 5541 5540 5539 5537 5536 5537 5538 5539 5540 5543 5546 5549 5551 5552 5554 5556 5558 5559 5561 5565 5572 5576 5579 5584 5588 5590 5594 5600 5601 5602 5609 5617 5622 5625 5629 5632 5637 5639 5639 5643 5650 5649 5645 5652 5657 5656 5655 5657 5661 5664 5661 5660 5663 5668 5681 5686 5687 5690 5692 5695 5700 5704 5710 5715 5717 5721 5723 5724 5725 5725
5549 5549 5550 5551 5549 5548 5548 5548 5547 5546 5544 5543 5542 5541 5541 5542 5541 5540 5539 5539 5538 5536 5536 5536 5536 5536 5538 5540 5542 5545 5547 5548 5551 5552 5554 5557 5558 5561 5566 5570 5574 5578 5581 5585 5591 5596 5595 5598 5606 5611 5612 5616 5621 5626 5628 5629 5631 5637 5638 5637 5643 5652 5651 5646 5646 5649 5652 5650 5647 5651 5657 5667 5674 5673 5677 5683 5684 5688 5692 5695 5701 5705 5708 5712 5714 5717 5718 5718
5548 5547 5547 5547 5546 5545 5546 5545 5545 5544 5542 5541 5540 5539 5539 5540 5539 5539 5538 5537 5536 5535 5535 5535 5535 5535 5535 5537 5540 5542 5543 5545 5547 5548 5550 5553 5554 5557 5561 5565 5569 5572 5576 5581 5586 5590 5591 5594 5600 5601 5603 5611 5616 5619 5621 5623 5627 5628 5626 5633 5644 5643 5637 5638 5640 5640 5640 5638 5640 5646 5653 5661 5664 5662 5670 5678 5679 5681 5684 5688 5692 5695 5700 5704 5706 5709 5710 5711
5546 5545 5545 5544 5542 5542 5543 5542 5541 5541 5539 5537 5537 5537 5537 5538 5538 5537 5536 5535 5534 5533 5533 5533 5534 5533 5533 5534 5537 5539 5539 5542 5544 5545 5547 5548 5549 5554 5557 5560 5564 5566 5571 5576 5578 5582 5584 5585 5590 5593 5598 5605 5609 5610 5613 5617 5621 5620 5622 5631 5633 5626 5627 5632 5630 5630 5631 5630 5633 5642 5646 5649 5653 5657 5665 5671 5675 5678 5678 5681 5685 5687 5692 5696 5699 5702 5702 5704
5544 5544 5543 5541 5539 5539 5539 5538 5538 5537 5535 5534 5535 5534 5534 5535 5536 5535 5534 5533 5532 5531 5531 5531 5531 5531 5531 5532 5534 5534 5534 5537 5540 5541 5543 5544 5546 5552 5555 5557 5559 5562 5567 5569 5569 5575 5578 5578 5582 5586 5591 5596 5597 5599 5603 5610 5616 5616 5617 5619 5618 5618 5622 5624 5622 5625 5627 5624 5626 5633 5634 5636 5646 5655 5659 5663 5670 5672 5671 5674 5677 5679 5684 5687 5690 5693 5694 5696
5541 5542 5541 5538 5536 5535 5535 5534 5534 5533 5532 5532 5532 5532 5532 5532 5533 5533 5532 5531 5530 5529 5529 5529 5529 5528 5529 5529 5529 5530 5530 5531 5534 5535 5537 5539 5543 5547 5551 5554 5556 5559 5563 5563 5564 5569 5572 5570 5574 5579 5583 5584 5585 5590 5597 5606 5610 5609 5609 5609 5609 5614 5616 5616 5616 5618 5619 5617 5619 5621 5620 5626 5640 5647 5650 5655 5660 5663 5665 5668 5669 5672 5675 5678 5681 5684 5686 5689
5538 5538 5537 5535 5532 5531 5530 5530 5530 5530 5529 5529 5530 5530 5529 5529 5529 5529 5529 5528 5528 5527 5526 5527 5527 5526 5527 5526 5526 5527 5526 5526 5528 5530 5532 5535 5539 5542 5546 5550 5554 5556 5557 5557 5559 5563 5564 5564 5568 5572 5574 5573 5578 5588 5595 5598 5599 5600 5602 5602 5604 5609 5611 5610 5607 5609 5613 5611 5612 5613 5609 5618 5635 5640 5642 5650 5654 5657 5660 5661 5662 5665 5667 5669 5672 5674 5676 5679
5535 5534 5533 5531 5528 5526 5524 5525 5527 5527 5526 5527 5528 5527 5526 5526 5526 5526 5526 5525 5525 5525 5524 5524 5524 5524 5524 5523 5523 5524 5523 5522 5523 5524 5527 5531 5535 5539 5542 5545 5547 5549 5551 5553 5557 5560 5560 5560 5561 5563 5566 5568 5575 5582 5584 5586 5589 5593 5595 5595 5598 5600 5601 5601 5599 5604 5608 5604 5607 5609 5600 5609 5629 5634 5636 5643 5646 5648 5649 5652 5655 5655 5655 5658 5661 5664 5666 5668
5531 5529 5527 5525 5523 5520 5519 5520 5522 5523 5523 5524 5524 5523 5523 5523 5522 5523 5523 5522 5522 5522 5521 5521 5521 5521 5521 5520 5520 5520 5520 5519 5517 5519 5523 5525 5529 5535 5537 5537 5538 5541 5544 5548 5553 5556 5554 5553 5554 5557 5561 5564 5568 5572 5574 5578 5582 5584 5585 5589 5591 5590 5593 5596 5596 5601 5600 5595 5603 5603 5593 5604 5622 5624 5629 5634 5634 5637 5640 5642 5645 5645 5646 5647 5650 5654 5657 5659
5528 5525 5522 5520 5518 5515 5514 5515 5517 5519 5520 5520 5520 5520 5520 5519 5519 5519 5519 5519 5518 5518 5518 5519 5518 5518 5518 5517 5517 5516 5516 5515 5514 5515 5518 5520 5525 5529 5530 5531 5533 5535 5537 5541 5546 5549 5548 5548 5550 5553 5555 5555 5557 5559 5562 5567 5570 5572 5577 5582 5583 5584 5589 5590 5590 5594 5589 5587 5596 5593 5586 5601 5613 5616 5627 5627 5623 5629 5634 5633 5633 5635 5639 5640 5641 5646 5649 5651
5524 5522 5518 5515 5513 5511 5511 5512 5513 5514 5515 5515 5515 5516 5516 5516 5516 5516 5515 5515 5515 5515 5516 5516 5516 5516 5515 5514 5514 5514 5514 5514 5513 5513 5514 5517 5521 5524 5524 5526 5527 5529 5533 5535 5537 5540 5541 5543 5545 5545 5545 5547 5548 5550 5556 5562 5565 5565 5569 5573 5575 5578 5582 5582 5583 5584 5578 5581 5589 5583 5583 5599 5606 5609 5620 5619 5615 5622 5626 5625 5626 5628 5631 5633 5635 5637 5638 5641
5520 5517 5514 5511 5508 5507 5507 5508 5508 5509 5511 5511 5511 5512 5512 5512 5513 5513 5513 5513 5513 5513 5512 5513 5513 5512 5512 5512 5512 5511 5512 5512 5512 5510 5511 5514 5518 5520 5520 5520 5522 5524 5527 5529 5530 5530 5532 5535 5539 5540 5539 5541 5545 5550 5556 5560 5559 5557 5560 5565 5568 5571 5575 5576 5574 5571 5573 5578 5579 5576 5582 5593 5597 5602 5608 5607 5608 5614 5616 5618 5620 5620 5622 5625 5626 5627 5628 5631
5516 5513 5510 5508 5505 5503 5504 5504 5504 5505 5508 5507 5507 5508 5509 5508 5509 5509 5510 5510 5510 5509 5509 5509 5509 5509 5508 5508 5508 5509 5510 5510 5510 5509 5509 5511 5514 5516 5516 5515 5518 5520 5522 5523 5524 5523 5522 5526 5531 5534 5534 5536 5541 5545 5549 5549 5548 5550 5552 5556 5560 5563 5565 5565 5561 5563 5572 5571 5565 5572 5582 5582 5587 5598 5601 5598 5601 5605 5606 5610 5613 5614 5614 5615 5616 5619 5620 5622
5514 5511 5508 5505 5502 5501 5500 5500 5500 5502 5504 5504 5503 5504 5505 5505 5506 5506 5507 5507 5506 5506 5505 5505 5506 5505 5504 5504 5504 5506 5508 5508 5507 5507 5507 5508 5509 5510 5510 5511 5513 5515 5515 5515 5516 5516 5515 5517 5522 5525 5525 5528 5532 5536 5539 5540 5540 5542 5544 5546 5550 5552 5553 5553 5552 5559 5565 5558 5557 5571 5576 5571 5579 5591 5594 5592 5594 5594 5596 5600 5604 5605 5604 5605 5608 5611 5614 5616
5511 5509 5507 5503 5500 5498 5497 5497 5496 5497 5499 5500 5500 5501 5502 5503 5503 5503 5503 5503 5503 5503 5503 5503 5502 5501 5500 5501 5502 5504 5506 5506 5505 5505 5504 5503 5502 5501 5502 5504 5505 5506 5507 5507 5509 5510 5509 5510 5515 5517 5516 5520 5523 5526 5529 5531 5531 5533 5535 5538 5542 5543 5544 5544 5546 5552 5554 5550 5554 5564 5564 5562 5571 5581 5585 5588 5586 5585 5587 5590 5592 5595 5596 5598 5601 5605 5608 5610
5509 5507 5505 5502 5499 5496 5494 5494 5493 5493 5496 5497 5497 5498 5500 5500 5500 5500 5500 5499 5499 5499 5500 5500 5499 5497 5498 5499 5499 5502 5505 5502 5500 5500 5499 5498 5497 5495 5494 5496 5496 5497 5499 5501 5503 5505 5504 5506 5511 5510 5509 5512 5516 5518 5520 5521 5522 5523 5525 5529 5533 5535 5536 5537 5540 5545 5545 5543 5548 5554 5552 5554 5564 5573 5578 5581 5581 5579 5579 5579 5581 5585 5588 5591 5595 5598 5601 5602
5506 5504 5502 5500 5498 5496 5493 5492 5491 5490 5492 5493 5494 5495 5496 5496 5497 5496 5496 5496 5496 5496 5496 5496 5495 5494 5494 5495 5496 5499 5499 5494 5493 5495 5494 5493 5494 5492 5490 5490 5491 5491 5493 5495 5497 5498 5499 5501 5505 5504 5502 5505 5511 5513 5513 5515 5514 5512 5514 5519 5524 5526 5527 5529 5533 5536 5537 5538 5542 5543 5540 5544 5558 5568 5571 5574 5576 5572 5568 5569 5572 5576 5582 5585 5587 5589 5591 5592
5502 5500 5499 5497 5496 5495 5492 5490 5489 5487 5489 5491 5491 5491 5492 5492 5493 5492 5492 5493 5493 5493 5493 5492 5491 5490 5490 5492 5493 5493 5490 5487 5488 5489 5487 5488 5490 5490 5489 5488 5487 5487 5488 5490 5490 5492 5493 5494 5497 5498 5495 5499 5506 5507 5506 5506 5502 5499 5507 5515 5518 5519 5520 5522 5524 5526 5529 5532 5533 5532 5534 5542 5554 5561 5560 5561 5564 5563 5561 5563 5567 5570 5574 5576 5577 5579 5580 5582